Location: Gro� Glienicke
(52.4675°N, 13.1079°E)
Time: 18:05:01
(UTC+00:00)

Lacrosse 5 rocket - Pass Details

Date: 06 July 2020
Orbit: 465 x 632 km, 57.0° (Epoch: 12 August)

Event Time Altitude Azimuth Distance (km) Brightness Sun altitude
Rises 21:09:13 0° 284° (WNW) 2,785 5.6 -10.3°
Reaches altitude 10° 21:11:37 10° 291° (WNW) 1,856 4.8 -10.5°
Maximum altitude 21:15:38 44° 4° (N) 757 2.5 -10.8°
Drops below altitude 10° 21:19:27 10° 78° (ENE) 1,755 3.7 -11.0°
Sets 21:21:40 0° 85° (E) 2,613 4.6 -11.2°
